Gunnison, CO

10:47 PM MDT on August 16, 2017 (GMT -0600)
Gunnison County

Weather History for KGUC - September, 2012

Change the Weather History Date:

Wednesday, September 5, 2012

  Actual Average Record
Temperature  
Mean Temperature 57 °F -  
Max Temperature 77 °F 70 °F 84 °F (2013)
Min Temperature 37 °F 37 °F 32 °F (1999)
Degree Days  
Heating Degree Days 8    
Growing Degree Days 7 (Base 50)    
Moisture  
Dew Point 24 °F    
Average Humidity 35    
Maximum Humidity 70    
Minimum Humidity 12    
Precipitation  
Precipitation 0.00 in - - ()
Sea Level Pressure  
Sea Level Pressure 30.37 in    
Wind  
Wind Speed 3 mph (WNW)    
Max Wind Speed 21 mph    
Max Gust Speed 29 mph    
Visibility 10 miles    
Events      
Averages and records for this station are not official NWS values.
T = Trace of Precipitation, MM = Missing Value Source: NWS Daily Summary

Daily Weather History Graph

Daily Weather History Graph

Search for Another Location

Airport or City:

Trip Planner

Search our weather history database for the weather conditions in past years. The results will help you decide how hot, cold, wet, or windy it might be!

Date:

Astronomy

Sep. 05, 2012 Rise Set
Actual Time 6:41 AM MDT 7:30 PM MDT
Civil Twilight 6:14 AM MDT 7:57 PM MDT
Nautical Twilight 5:42 AM MDT 8:29 PM MDT
Astronomical Twilight 5:09 AM MDT 9:02 PM MDT
Moon 10:07 PM MDT (9/5) 11:43 AM MDT (9/5)
Length of Visible Light 13h 43m
Length of Day
12h 49m
Waning Gibbous, 75% of the Moon is Illuminated
Sep 5
Waning Gibbous
Sep 8
Last Quarter
Sep 15
New
Sep 22
First Quarter
Sep 29
Full

Hourly Weather History & Observations

Time (MDT) Temp. Windchill Dew Point Humidity Pressure Visibility Wind Dir Wind Speed Gust Speed Precip Events Conditions
12:35 AM 48.2 °F - 21.2 °F 34% 30.37 in 10.0 mi Calm Calm - N/A   Unknown
12:55 AM 51.8 °F - 28.4 °F 41% 30.37 in 10.0 mi North 3.5 mph - N/A   Clear
1:15 AM 50.0 °F - 28.4 °F 43% 30.38 in 10.0 mi Calm Calm - N/A   Clear
1:35 AM 46.4 °F - 32.0 °F 57% 30.38 in 10.0 mi Calm Calm - N/A   Clear
1:55 AM 46.4 °F - 26.6 °F 46% 30.38 in 10.0 mi Calm Calm - N/A   Clear
2:15 AM 46.4 °F - 28.4 °F 50% 30.38 in 10.0 mi Calm Calm - N/A   Clear
2:35 AM 44.6 °F - 28.4 °F 53% 30.39 in 10.0 mi Calm Calm - N/A   Clear
2:55 AM 42.8 °F - 30.2 °F 61% 30.39 in 10.0 mi Calm Calm - N/A   Clear
3:15 AM 44.6 °F 43.1 °F 28.4 °F 53% 30.39 in 10.0 mi NW 3.5 mph - N/A   Clear
3:35 AM 42.8 °F - 28.4 °F 57% 30.39 in 10.0 mi Calm Calm - N/A   Clear
4:15 AM 41.0 °F 39.0 °F 26.6 °F 57% 30.41 in 10.0 mi North 3.5 mph - N/A   Clear
4:35 AM 42.8 °F - 26.6 °F 53% 30.41 in 10.0 mi Calm Calm - N/A   Clear
4:55 AM 39.2 °F - 26.6 °F 61% 30.41 in 10.0 mi Calm Calm - N/A   Clear
5:15 AM 39.2 °F - 30.2 °F 70% 30.41 in 10.0 mi Calm Calm - N/A   Clear
5:35 AM 39.2 °F - 30.2 °F 70% 30.42 in 10.0 mi Calm Calm - N/A   Clear
5:55 AM 39.2 °F - 30.2 °F 70% 30.42 in 10.0 mi Calm Calm - N/A   Clear
6:35 AM 37.4 °F 34.9 °F 28.4 °F 70% 30.43 in 10.0 mi North 3.5 mph - N/A   Clear
6:55 AM 37.4 °F 34.9 °F 26.6 °F 65% 30.44 in 10.0 mi North 3.5 mph - N/A   Clear
7:15 AM 37.4 °F 34.9 °F 26.6 °F 65% 30.44 in 10.0 mi NNW 3.5 mph - N/A   Clear
7:35 AM 39.2 °F 35.9 °F 26.6 °F 61% 30.45 in 10.0 mi East 4.6 mph - N/A   Clear
7:55 AM 39.2 °F - 30.2 °F 70% 30.45 in 10.0 mi Calm Calm - N/A   Clear
8:15 AM 42.8 °F - 30.2 °F 61% 30.45 in 10.0 mi Calm Calm - N/A   Clear
8:35 AM 44.6 °F - 28.4 °F 53% 30.45 in 10.0 mi Calm Calm - N/A   Clear
8:55 AM 46.4 °F - 32.0 °F 57% 30.45 in 10.0 mi Calm Calm - N/A   Clear
9:15 AM 50.0 °F - 28.4 °F 43% 30.45 in 10.0 mi Calm Calm - N/A   Clear
9:35 AM 53.6 °F - 28.4 °F 38% 30.45 in 10.0 mi Calm Calm - N/A   Clear
9:55 AM 53.6 °F - 30.2 °F 41% 30.45 in 10.0 mi Calm Calm - N/A   Clear
10:15 AM 55.4 °F - 28.4 °F 36% 30.44 in 10.0 mi Calm Calm - N/A   Clear
10:35 AM 59.0 °F - 28.4 °F 31% 30.44 in 10.0 mi Calm Calm - N/A   Clear
10:55 AM 60.8 °F - 28.4 °F 29% 30.43 in 10.0 mi Calm Calm - N/A   Clear
11:15 AM 62.6 °F - 28.4 °F 27% 30.42 in 10.0 mi Calm Calm - N/A   Clear
11:55 AM 66.2 °F - 28.4 °F 24% 30.39 in 10.0 mi NNW 3.5 mph - N/A   Clear
12:15 PM 68.0 °F - 28.4 °F 23% 30.38 in 10.0 mi Calm Calm - N/A   Clear
12:35 PM 69.8 °F - 26.6 °F 20% 30.37 in 10.0 mi Calm Calm - N/A   Clear
12:55 PM 71.6 °F - 26.6 °F 19% 30.36 in 10.0 mi SSW 4.6 mph - N/A   Clear
1:15 PM 73.4 °F - 24.8 °F 16% 30.34 in 10.0 mi SW 13.8 mph 19.6 mph N/A   Clear
1:55 PM 75.2 °F - 21.2 °F 13% 30.32 in 10.0 mi SW 16.1 mph 21.9 mph N/A   Clear
2:15 PM 75.2 °F - 19.4 °F 12% 30.32 in 10.0 mi WSW 17.3 mph 24.2 mph N/A   Clear
2:35 PM 77.0 °F - 19.4 °F 12% 30.31 in 10.0 mi SW 20.7 mph 27.6 mph N/A   Clear
2:55 PM 75.2 °F - 19.4 °F 12% 30.31 in 10.0 mi SW 18.4 mph 27.6 mph N/A   Clear
3:15 PM 75.2 °F - 19.4 °F 12% 30.31 in 10.0 mi SW 17.3 mph 28.8 mph N/A   Clear
3:35 PM 75.2 °F - 19.4 °F 12% 30.30 in 10.0 mi SW 15.0 mph 27.6 mph N/A   Clear
4:15 PM 75.2 °F - 19.4 °F 12% 30.30 in 10.0 mi WSW 15.0 mph 21.9 mph N/A   Clear
4:35 PM 75.2 °F - 19.4 °F 12% 30.30 in 10.0 mi West 13.8 mph 20.7 mph N/A   Clear
4:55 PM 75.2 °F - 19.4 °F 12% 30.30 in 10.0 mi West 5.8 mph - N/A   Clear
5:15 PM 75.2 °F - 19.4 °F 12% 30.29 in 10.0 mi WSW 8.1 mph - N/A   Clear
5:35 PM 75.2 °F - 21.2 °F 13% 30.29 in 10.0 mi WSW 10.4 mph - N/A   Clear
5:55 PM 75.2 °F - 19.4 °F 12% 30.29 in 10.0 mi West 9.2 mph 19.6 mph N/A   Clear
6:35 PM 73.4 °F - 19.4 °F 13% 30.29 in 10.0 mi WNW 10.4 mph - N/A   Clear
7:15 PM 71.6 °F - 17.6 °F 13% 30.29 in 10.0 mi NW 8.1 mph - N/A   Clear
7:35 PM 69.8 °F - 17.6 °F 14% 30.29 in 10.0 mi NW 8.1 mph - N/A   Clear
7:55 PM 66.2 °F - 15.8 °F 14% 30.30 in 10.0 mi NNW 10.4 mph - N/A   Clear
8:15 PM 62.6 °F - 15.8 °F 16% 30.30 in 10.0 mi NNW 9.2 mph - N/A   Clear
8:35 PM 62.6 °F - 17.6 °F 18% 30.31 in 10.0 mi North 9.2 mph - N/A   Clear
8:55 PM 60.8 °F - 17.6 °F 19% 30.32 in 10.0 mi Calm Calm - N/A   Clear
9:15 PM 60.8 °F - 19.4 °F 20% 30.32 in 10.0 mi North 5.8 mph - N/A   Clear
9:35 PM 57.2 °F - 19.4 °F 23% 30.33 in 10.0 mi Calm Calm - N/A   Clear
9:55 PM 55.4 °F - 21.2 °F 26% 30.33 in 10.0 mi North 9.2 mph - N/A   Clear
10:15 PM 53.6 °F - 21.2 °F 28% 30.34 in 10.0 mi ESE 3.5 mph - N/A   Clear
10:35 PM 53.6 °F - 21.2 °F 28% 30.34 in 10.0 mi North 8.1 mph - N/A   Clear
10:55 PM 51.8 °F - 21.2 °F 30% 30.35 in 10.0 mi North 4.6 mph - N/A   Clear
11:15 PM 51.8 °F - 21.2 °F 30% 30.36 in 10.0 mi NE 3.5 mph - N/A   Clear
11:35 PM 51.8 °F - 21.2 °F 30% 30.36 in 10.0 mi Calm Calm - N/A   Clear
11:55 PM 48.2 °F - 24.8 °F 40% 30.36 in 10.0 mi Calm Calm - N/A   Clear